Terminal Aerodrome Forecast
Issued by NWS Chicago, IL

Home | Current Version | Previous Version | Graphics & Text | Print | Product List | Glossary On
Versions: 1 2 3 4 5 6 7 8 9 10 11 12 13 14 15 16 17 18 19 20 21 22 23 24 25 26 27 28 29 30 31 32 33
000
FTUS43 KLOT 262300
TAFRFD
TAF
KRFD 262336Z 2700/2724 18006KT P6SM SCT030 BKN150
     FM270200 18005KT P6SM BKN025 BKN150
     FM270500 18006KT P6SM OVC015
     FM270800 18008KT 2SM -DZRA BR OVC007
     FM271100 19010KT 1SM -DZ BR OVC003
     FM271600 25014G22KT P6SM SCT007 OVC015
     FM271900 28015G25KT P6SM BKN025=

USA.gov is the U.S. government's official web portal to all federal, state and local government web resources and services.